Theta_e
344 346 349 352 354 355 355 355 355 354 354 353 353 352 352 351 350 350 349 349 349 349 349 349 349 351 351 350 350 349 349 349 349 348 348 345 345 348 347 346 347 347 346 346 345 345 343 343 343 343 344 345 346 346 347 347 348 348 347 346 345 345 345 345 346 347 347 349 350 351 351 351 351 351 352 351 350 351 349 349 349 347 346 348 350
344 347 349 352 354 355 355 354 355 354 353 353 353 352 351 350 350 350 350 349 349 349 349 349 351 351 351 351 351 351 350 349 348 348 347 346 347 346 346 346 346 347 346 345 344 344 343 341 342 342 342 343 344 344 345 346 346 347 346 346 345 344 344 345 345 345 346 346 348 347 348 348 349 349 350 349 348 349 348 348 348 346 346 349 350
345 347 349 351 352 353 354 354 354 354 353 353 352 351 351 350 351 351 351 349 348 349 349 350 351 351 351 350 350 350 349 350 349 349 348 347 347 346 346 346 345 344 345 345 342 342 342 341 340 340 340 340 341 342 343 343 343 344 345 345 345 344 344 345 345 345 344 344 344 345 345 346 347 348 348 348 349 348 346 347 347 346 345 349 349
345 346 349 351 348 351 353 353 354 353 353 352 352 351 350 350 349 350 349 349 348 348 348 351 350 350 350 349 350 350 349 349 348 348 347 346 346 345 345 345 345 344 344 344 341 340 340 339 338 338 338 338 338 339 340 341 342 342 343 344 345 345 345 345 345 345 344 343 344 343 342 340 342 346 348 348 348 347 344 345 346 347 348 348 349
346 347 349 350 349 348 351 352 353 352 352 352 351 350 350 350 349 349 349 348 348 348 347 347 348 348 349 348 349 349 348 349 348 348 347 346 345 345 344 344 344 344 343 342 340 338 337 337 337 338 338 337 337 337 338 338 340 341 342 342 344 344 344 344 344 344 343 344 343 341 339 340 340 345 347 348 345 344 344 343 343 345 346 347 347
346 348 349 350 349 349 349 352 353 352 352 351 351 350 350 350 349 349 348 348 348 347 346 346 347 347 348 348 348 348 348 348 347 347 346 345 345 344 343 343 343 343 342 341 339 337 335 335 335 336 336 335 336 336 336 337 337 338 339 340 342 343 344 343 343 342 342 341 341 339 339 339 340 342 346 345 343 341 341 344 343 342 343 345 346
347 348 349 349 349 347 346 352 351 352 352 351 351 351 350 350 349 349 348 347 347 347 346 346 346 346 346 347 347 347 347 346 347 346 346 345 345 342 341 341 342 342 341 340 339 336 335 334 334 334 335 334 336 335 335 336 336 338 339 339 341 342 342 342 341 342 342 336 337 338 338 339 339 339 343 343 342 340 339 341 344 342 342 342 343
346 347 349 349 349 346 347 351 351 351 352 351 351 351 350 350 350 350 348 347 347 347 346 345 346 346 346 347 347 346 347 347 347 346 345 343 343 342 342 342 342 341 340 340 338 336 334 334 333 334 334 334 335 335 335 335 336 337 337 337 339 340 342 340 341 342 339 334 336 337 338 338 338 338 342 343 342 341 339 339 339 342 342 341 341
345 346 348 349 348 345 347 349 351 349 349 350 350 351 350 350 351 350 348 347 347 346 346 345 346 346 347 347 346 346 346 347 346 345 343 343 342 342 341 341 341 342 340 339 338 336 336 334 333 334 334 334 334 335 335 335 335 334 334 336 337 340 341 341 340 338 333 333 337 336 337 338 338 336 340 341 341 341 339 337 337 337 339 339 339
343 345 348 348 348 344 346 350 351 350 349 349 351 351 350 350 351 349 347 347 346 346 345 346 346 346 346 346 346 346 346 346 345 344 343 343 342 341 341 340 340 340 340 339 338 336 335 332 331 331 332 333 333 334 334 334 334 333 334 336 338 339 339 339 338 334 328 331 335 335 336 339 335 335 338 340 339 340 337 336 335 337 335 337 338
340 345 347 347 347 344 348 351 350 348 348 349 350 350 350 350 350 348 347 347 346 346 345 345 345 346 346 346 346 345 345 345 344 343 342 342 342 341 340 339 339 340 339 338 337 336 334 332 330 329 330 330 331 332 333 333 333 334 335 337 338 338 337 338 335 330 327 329 331 332 338 339 332 332 338 338 338 337 335 334 335 335 335 335 335
346 347 347 346 345 344 348 349 349 349 350 349 349 350 350 350 350 348 347 347 347 346 346 346 345 346 346 345 346 345 343 343 343 342 342 342 342 341 340 340 339 339 338 337 337 336 334 332 329 328 327 328 329 330 331 332 333 334 335 336 336 336 335 334 330 329 324 326 330 330 329 329 330 335 339 337 338 337 335 334 334 334 334 334 334
344 345 345 345 345 342 346 348 348 349 349 349 349 350 349 350 350 349 348 347 347 347 346 345 345 346 346 346 345 343 343 343 343 342 342 341 340 340 340 340 339 339 337 336 336 335 334 331 329 326 324 325 328 329 330 331 332 332 333 334 334 334 331 330 327 328 326 326 329 329 328 328 330 337 337 337 337 336 335 334 332 333 334 333 333
342 344 344 345 344 344 343 346 347 349 349 348 349 349 349 349 349 349 348 347 348 347 346 346 346 346 345 345 345 343 343 343 343 342 341 341 341 340 340 340 339 337 336 336 336 335 334 333 329 325 323 322 324 326 327 328 330 331 331 332 332 332 328 326 328 327 329 329 330 330 330 331 331 337 338 337 335 336 335 333 331 332 332 332 332
340 342 343 342 343 342 340 341 345 346 347 348 348 348 348 348 348 349 349 348 348 348 347 346 346 346 345 345 344 343 343 342 342 342 341 340 340 340 339 339 338 337 336 335 335 334 334 333 330 326 323 320 321 323 325 326 327 328 329 330 329 329 326 322 324 325 327 329 328 330 329 330 335 333 333 334 335 335 335 333 330 331 331 331 331
334 338 341 342 341 340 342 340 340 343 343 346 345 346 347 347 348 348 348 348 348 347 347 346 346 346 345 345 344 343 342 342 342 341 340 340 340 339 339 338 337 336 335 335 334 333 333 332 330 327 323 319 318 319 321 323 325 326 327 327 327 327 324 322 322 323 325 326 326 327 329 331 335 333 332 333 333 333 334 332 330 331 331 331 331
332 334 340 340 339 340 340 343 337 336 337 340 340 342 343 345 346 347 348 347 347 347 347 346 346 346 345 344 344 343 342 342 341 340 340 340 339 338 338 338 337 336 335 334 333 332 332 331 329 328 325 321 318 317 317 319 322 323 324 324 327 325 323 321 321 322 323 324 324 325 327 331 335 334 334 333 333 333 333 332 330 331 331 330 330
330 332 332 333 333 338 341 341 343 346 344 338 335 338 341 343 343 342 342 344 345 346 346 345 345 345 343 341 341 340 340 341 341 341 341 339 339 339 338 337 337 335 334 334 333 332 331 330 328 327 325 323 320 317 316 317 320 321 321 323 324 322 320 318 319 320 321 323 321 324 325 334 335 334 334 333 332 335 332 329 330 330 330 330 329
329 330 331 331 331 332 338 339 342 345 344 344 343 340 336 339 340 339 339 341 343 342 342 342 341 340 339 337 337 336 334 335 335 337 338 336 335 333 337 337 336 336 334 333 332 331 330 329 328 327 326 324 321 318 317 317 319 319 320 321 319 317 316 315 315 318 318 318 319 321 325 332 336 333 333 332 332 333 331 328 329 330 330 329 328
324 326 328 328 328 330 331 334 339 340 342 343 343 342 335 334 337 338 338 338 337 338 339 338 333 331 332 332 331 331 329 330 327 332 332 334 332 331 334 337 336 336 334 333 332 331 330 330 329 327 326 324 322 319 319 317 318 319 321 318 314 312 308 308 312 315 316 316 318 318 327 330 334 333 332 332 332 331 331 328 329 329 329 328 328
313 312 315 319 321 324 329 329 332 337 340 341 342 340 338 332 333 331 333 334 336 334 333 326 323 322 324 324 325 333 332 331 329 331 325 330 325 326 332 336 337 336 334 333 332 331 331 330 329 328 325 322 319 318 317 319 319 318 318 314 309 303 305 305 309 312 313 312 314 316 324 327 330 332 331 331 331 331 330 328 328 328 328 327 327
309 310 314 315 315 315 316 321 329 331 334 340 342 342 338 336 340 338 336 334 331 327 328 331 328 329 322 326 333 333 334 331 330 330 328 327 325 324 326 331 335 334 333 333 332 332 330 330 329 328 327 323 318 305 304 310 313 315 313 309 300 299 301 302 304 309 308 309 310 316 320 323 326 330 330 331 331 330 327 327 327 328 327 327 326
309 310 312 314 314 315 316 316 316 325 332 334 343 342 339 340 339 337 336 332 331 332 334 332 334 332 330 332 333 335 335 332 331 330 329 323 325 322 325 329 332 332 331 333 332 332 331 330 329 328 327 324 310 309 308 304 303 310 307 301 297 298 298 299 300 303 308 307 307 316 316 319 323 326 328 330 330 332 330 334 330 330 327 326 326
309 309 311 314 314 315 315 316 316 316 329 331 336 340 340 341 340 338 337 335 334 333 335 336 336 335 334 334 335 333 334 334 328 325 326 326 324 321 324 325 325 326 326 328 330 331 332 332 330 328 320 315 311 314 313 310 308 308 309 306 302 299 299 299 297 299 305 309 308 315 314 315 319 321 324 326 328 329 331 332 334 335 335 330 327
307 309 311 311 313 314 315 315 316 315 319 331 331 336 340 340 338 338 337 336 334 335 335 336 335 333 333 333 334 333 332 331 330 330 329 327 326 327 327 327 323 321 323 322 321 322 323 320 316 315 313 314 315 315 314 313 312 309 310 309 309 304 301 302 301 301 301 303 307 317 314 314 316 319 319 322 324 326 328 329 331 333 335 335 335
308 309 309 310 312 314 314 315 316 315 315 325 329 329 337 338 336 338 339 338 337 336 333 334 334 332 330 330 331 333 332 331 329 329 329 328 326 325 327 327 324 323 322 323 321 321 320 319 318 316 315 316 316 314 311 312 312 310 310 309 310 306 305 304 304 305 304 302 304 317 316 315 314 316 319 320 320 321 322 324 328 332 333 334 335
307 309 310 311 312 312 313 315 316 315 314 321 330 331 332 334 335 336 337 335 334 333 331 332 333 333 333 332 332 331 331 331 331 331 328 328 327 327 326 326 325 324 324 325 324 324 324 323 318 316 315 314 313 312 311 310 309 310 309 309 308 307 305 305 304 304 304 303 306 315 316 315 315 314 316 319 321 321 321 321 323 327 329 331 333
310 310 310 311 310 311 312 314 317 315 313 321 330 331 331 329 328 327 328 329 331 333 333 334 334 334 333 334 332 332 331 330 329 330 330 331 329 329 328 327 326 326 325 328 326 324 325 324 321 317 315 313 313 311 311 311 310 309 310 308 309 308 306 305 305 304 304 303 302 308 314 315 315 315 317 317 319 321 322 323 323 323 323 325 327
307 308 309 309 309 310 312 317 320 318 314 328 329 328 326 325 324 323 323 323 325 326 327 328 329 329 329 328 327 328 329 328 328 329 328 327 327 327 327 325 326 326 326 325 326 325 325 324 323 321 318 316 314 315 313 311 309 310 311 309 309 309 308 307 305 305 304 304 302 303 313 315 314 315 317 319 319 319 320 321 322 323 324 325 325
307 308 308 309 310 312 316 321 322 321 326 326 325 323 322 321 321 320 320 320 321 321 322 322 323 324 325 325 324 324 324 324 324 324 323 322 322 322 321 321 321 322 323 322 322 322 322 322 321 321 320 318 317 316 314 313 312 310 308 310 309 309 308 307 306 305 305 305 304 304 309 312 315 315 316 317 319 320 319 318 318 319 321 323 323
306 306 308 309 312 316 320 321 322 322 322 322 321 321 319 318 318 318 318 317 318 318 318 319 319 320 321 323 322 321 321 321 320 320 320 319 318 318 318 319 319 319 320 320 320 320 321 320 320 320 319 318 316 315 315 314 313 313 310 310 311 310 310 309 308 307 307 306 307 306 305 309 313 314 314 316 317 317 318 319 319 320 320 320 320
305 305 307 310 315 317 318 319 321 320 319 319 319 319 318 316 315 315 314 314 314 314 314 314 313 316 318 319 320 320 319 319 319 318 318 317 317 317 317 317 317 317 317 317 317 317 318 318 319 319 318 316 314 313 312 312 311 312 313 313 313 312 309 308 309 307 306 307 305 304 303 303 307 311 312 315 314 315 316 318 319 319 319 320 320
305 306 307 312 313 315 315 315 317 317 317 316 315 315 314 313 312 311 311 310 310 310 310 310 310 311 313 315 316 316 317 316 316 316 314 315 314 314 314 314 315 316 315 314 313 314 314 315 315 314 312 311 308 307 309 309 308 310 311 312 312 311 308 308 307 307 305 304 303 301 300 301 300 304 308 313 312 313 315 316 317 317 318 319 321
304 306 308 310 312 313 314 313 312 312 312 312 312 310 309 309 308 308 308 308 307 307 307 307 307 308 309 310 311 312 312 312 312 311 311 310 309 309 310 310 311 312 312 313 312 311 309 309 310 309 305 304 302 301 301 301 302 303 304 306 308 307 306 305 304 304 302 302 300 300 299 299 299 299 300 305 309 311 312 314 315 315 316 317 318
306 308 309 310 310 310 311 311 311 309 308 308 307 306 306 306 305 305 305 306 305 305 305 306 306 306 306 306 307 307 308 308 308 307 306 305 304 304 304 305 306 306 306 307 309 308 303 301 301 301 300 300 299 299 298 298 298 300 301 303 305 305 304 303 302 301 300 300 300 299 299 298 298 299 299 298 301 306 310 311 312 313 314 315 317
306 307 309 309 308 309 309 308 308 307 306 306 305 305 304 303 303 303 302 302 302 303 303 303 304 304 305 305 305 305 305 305 305 305 304 303 303 303 303 303 303 303 303 303 304 305 304 300 299 298 297 296 296 296 296 296 297 298 299 301 302 302 300 300 300 300 299 299 299 298 298 298 298 298 300 298 298 301 308 308 309 310 311 312 314
307 308 308 308 307 307 308 307 307 306 305 305 304 303 302 301 301 300 300 300 299 299 300 301 300 300 301 301 303 304 305 305 304 303 302 301 301 300 300 301 301 300 299 299 300 301 304 301 298 298 297 295 294 293 294 295 296 297 298 299 299 300 299 299 299 299 300 298 298 297 298 298 298 300 297 298 298 297 302 305 306 307 307 309 311
307 308 308 307 306 306 305 305 306 306 305 303 302 301 300 299 298 298 297 296 296 297 297 297 297 297 297 297 298 299 301 301 301 300 298 296 296 295 296 296 297 296 296 296 296 298 300 302 298 297 295 293 292 292 292 294 296 296 297 298 299 297 296 297 298 298 297 297 297 297 296 296 297 297 297 296 297 296 295 298 302 302 303 306 308
307 308 308 307 307 306 304 304 304 304 303 302 301 300 299 298 297 296 295 294 294 294 295 294 295 295 295 296 295 295 296 296 296 296 295 294 293 293 293 294 294 294 293 293 293 293 295 297 297 295 294 292 291 291 291 293 294 295 297 299 296 294 294 295 297 297 297 297 297 297 296 294 294 295 295 295 295 294 292 292 294 294 296 302 306
305 307 306 307 306 306 305 305 304 303 303 302 301 299 298 296 295 294 293 292 292 292 292 293 293 293 294 294 294 294 294 294 294 294 293 293 292 292 291 292 292 292 291 291 291 291 291 291 292 293 290 290 290 290 290 291 292 295 298 298 295 293 293 293 295 295 296 296 296 295 293 293 293 294 295 294 295 293 290 290 292 293 294 298 302
304 304 304 304 304 304 304 303 303 303 301 300 299 297 295 294 293 292 291 291 291 291 291 292 292 292 293 293 292 292 293 292 292 292 291 291 291 291 291 290 290 290 289 289 289 289 290 289 289 290 289 288 288 289 289 290 290 291 292 295 296 293 292 292 292 293 294 295 295 294 293 292 291 292 294 294 294 292 289 289 289 290 292 293 295
302 303 302 302 302 302 302 301 301 300 299 298 296 295 295 293 292 290 290 291 290 290 289 290 290 291 291 291 291 291 291 291 291 290 290 290 289 289 289 289 289 288 288 289 288 289 288 288 288 287 288 287 286 288 288 288 286 286 288 288 290 292 292 290 291 292 292 293 293 294 292 291 290 290 293 291 292 291 289 288 288 289 290 292 293
301 302 302 301 301 300 300 300 299 299 298 297 295 294 293 293 291 290 290 289 290 290 290 290 290 290 290 290 290 290 290 289 290 290 289 289 288 288 288 288 288 288 287 287 287 286 287 287 287 286 286 286 286 288 287 287 284 286 287 286 286 286 289 288 289 290 291 291 290 292 292 290 289 289 291 290 291 289 288 288 288 289 289 291 291
300 301 301 300 299 298 298 297 296 296 296 295 294 293 292 291 290 290 290 289 288 290 289 289 289 289 289 289 289 289 289 289 289 289 288 288 288 287 287 287 287 287 287 286 286 285 286 286 286 287 285 284 284 285 287 287 286 285 282 285 284 282 280 283 284 287 289 289 288 287 290 288 287 288 288 290 288 289 287 288 288 288 289 289 290
298 299 301 300 299 297 296 296 295 295 294 293 291 291 290 289 289 289 289 288 288 288 288 287 288 288 288 288 288 289 289 288 288 288 288 287 287 287 287 287 286 286 286 286 285 285 285 285 285 285 285 283 283 283 285 286 286 287 285 282 281 281 281 282 283 285 286 288 287 287 288 286 286 287 287 288 287 289 288 287 287 287 288 289 288
297 299 300 300 298 297 296 295 294 293 292 291 290 290 289 288 287 286 285 285 285 285 285 285 286 286 286 287 288 288 288 288 288 288 288 288 287 287 286 286 286 286 286 285 285 285 285 284 284 284 285 285 283 283 282 285 286 286 286 285 285 282 279 280 281 279 285 286 286 287 286 285 285 286 286 286 286 288 287 287 287 287 288 289 288
296 298 298 298 298 298 296 295 293 293 293 291 290 289 288 287 286 286 286 285 285 285 286 287 286 287 287 287 287 287 288 287 287 287 287 287 286 286 286 286 285 285 286 285 285 284 285 285 285 284 284 285 284 282 282 282 283 284 285 284 285 284 284 281 279 279 277 280 284 285 286 285 285 285 285 285 286 286 285 285 286 287 288 289 288
296 296 296 296 296 294 293 293 292 291 290 289 289 289 288 287 286 286 286 286 286 285 286 286 287 287 286 286 286 286 286 287 286 286 286 286 286 285 285 285 285 285 285 284 284 284 284 285 284 283 284 284 283 282 281 282 281 281 283 283 283 283 282 282 281 279 278 277 279 282 284 283 283 282 283 283 284 284 284 284 285 286 287 289 290
295 295 295 293 292 291 291 290 289 289 289 289 288 288 288 288 287 287 286 287 287 287 287 287 286 286 285 285 285 285 286 286 286 286 285 286 286 285 285 285 285 284 284 284 283 284 283 283 283 282 282 283 283 283 282 281 281 281 280 280 280 280 279 280 280 280 278 276 276 277 278 281 280 281 282 283 283 283 283 283 284 286 286 287 289
293 294 292 291 291 290 290 289 288 288 288 288 288 288 288 288 287 287 287 287 287 286 286 286 285 285 284 284 284 284 284 285 285 285 285 285 285 285 284 284 284 284 284 283 283 283 283 282 282 282 281 281 281 283 282 281 282 280 280 280 279 279 277 277 277 278 277 277 277 277 278 277 277 279 281 281 281 282 282 283 283 283 285 286 287
292 291 290 290 289 289 288 288 287 288 288 288 288 287 287 288 288 287 287 286 286 286 285 284 285 284 284 284 284 284 284 284 284 284 284 284 284 285 284 284 284 284 283 283 282 282 282 281 282 281 281 280 280 280 282 281 281 281 280 279 279 279 278 277 277 278 277 276 276 276 277 277 277 277 279 280 282 281 281 281 282 283 283 284 286
Wind_Speed
4 9 5 8 8 10 13 13 13 14 14 14 14 14 13 13 12 12 12 12 12 12 12 11 12 13 12 12 13 13 15 15 15 15 15 14 15 16 15 16 16 16 16 17 17 16 16 15 15 14 14 14 14 14 14 14 14 14 14 14 14 13 12 12 12 12 12 15 17 17 17 17 17 17 18 17 18 18 16 17 13 9 7 9 14
7 6 6 6 9 9 12 13 13 13 13 13 13 13 13 12 12 12 11 11 11 12 11 11 12 12 12 12 13 13 14 14 14 15 15 15 15 15 15 15 15 16 16 16 16 16 15 15 15 15 14 14 14 13 13 14 13 13 13 13 13 13 12 11 11 11 10 9 10 12 14 17 17 17 17 17 16 19 17 17 16 8 5 13 15
6 6 5 7 9 9 10 12 12 13 13 13 12 12 12 11 10 9 10 11 11 11 11 12 11 11 12 12 13 13 14 14 15 15 15 14 15 15 15 15 16 16 16 16 15 15 15 15 14 14 14 14 14 14 13 13 13 12 12 12 12 12 12 11 10 9 8 8 7 8 12 13 15 16 16 17 18 18 17 17 16 14 9 16 14
8 4 5 8 8 9 9 10 11 11 11 12 12 11 11 11 11 10 11 11 11 11 11 12 11 11 12 12 13 13 13 14 14 15 15 14 15 15 14 15 15 16 14 15 15 14 14 14 14 14 14 14 14 14 14 13 13 12 12 12 12 12 12 12 12 12 13 9 9 7 5 7 8 15 15 17 17 18 16 17 17 17 18 16 16
8 6 6 6 5 6 9 10 11 12 12 12 11 11 11 10 10 11 10 10 11 10 9 11 12 11 12 12 12 13 13 13 14 14 14 15 15 15 14 14 14 13 14 14 14 14 14 14 14 14 14 14 14 13 13 13 13 13 12 12 12 12 12 13 13 14 15 10 10 7 5 7 6 14 17 18 17 17 16 17 16 17 17 17 16
8 6 6 6 6 6 8 10 12 13 13 12 12 11 11 10 10 10 9 10 10 10 9 10 10 10 11 11 12 13 12 14 14 14 15 15 15 15 14 13 13 13 14 14 14 14 14 14 14 14 14 13 13 13 13 13 12 12 12 11 11 11 12 13 13 13 12 9 9 5 7 7 6 7 18 17 16 17 16 16 16 16 16 17 16
9 6 7 7 6 7 8 9 11 12 13 13 12 12 11 10 10 10 10 9 9 9 9 9 10 9 10 11 11 12 13 14 14 14 15 15 15 14 13 13 13 13 13 13 14 14 14 14 13 14 13 13 13 13 13 12 12 11 11 11 10 11 12 13 12 10 9 5 6 6 6 6 5 4 17 16 16 16 16 15 16 15 15 15 17
8 7 6 7 6 8 11 10 12 11 13 12 12 12 11 10 9 9 10 9 9 8 9 8 9 9 9 10 11 12 13 14 14 15 15 15 15 14 13 13 13 13 13 13 14 14 14 14 14 14 14 13 13 13 13 12 12 11 11 10 10 11 11 11 11 10 9 4 5 6 6 5 5 5 14 15 16 16 16 15 15 15 15 16 13
8 8 8 7 7 11 11 10 12 11 12 12 10 10 11 10 8 9 10 9 9 8 8 8 8 7 8 9 10 11 12 14 14 14 15 15 14 14 13 13 13 13 13 13 14 14 14 14 14 14 14 14 13 13 13 13 12 12 11 10 10 11 10 11 11 9 6 4 6 6 5 5 4 5 12 15 15 15 15 12 11 13 14 14 13
8 8 8 7 8 13 12 11 13 12 10 9 10 10 11 10 9 10 11 10 9 8 8 7 7 7 8 9 10 11 13 14 14 14 14 14 14 14 14 14 13 14 13 13 13 14 14 14 14 14 14 14 13 13 14 13 13 12 11 11 11 11 11 11 10 6 3 5 6 5 6 7 4 5 10 15 15 15 14 14 10 9 9 13 14
6 6 6 7 9 13 14 13 12 13 12 10 9 9 11 9 8 10 11 11 10 8 8 7 7 7 7 9 10 10 12 13 14 14 14 14 14 14 14 14 14 13 13 13 13 14 14 14 14 14 14 14 13 13 13 13 13 12 12 12 12 13 12 12 9 5 5 7 6 5 5 7 4 4 11 13 14 15 14 13 13 12 13 13 13
7 6 5 6 10 13 12 13 14 14 11 11 10 10 10 9 9 9 10 11 10 9 8 7 6 7 8 9 9 10 11 12 14 14 14 14 14 14 14 13 13 13 12 12 13 13 13 13 14 14 13 13 13 13 13 13 13 13 13 13 13 13 11 12 7 6 6 7 6 5 5 5 4 8 13 13 13 14 14 13 13 13 13 13 12
6 6 6 6 6 10 12 13 13 12 13 11 11 10 10 9 9 8 8 9 10 9 8 6 7 7 7 8 10 11 10 11 13 14 13 13 13 13 13 13 13 12 12 12 12 12 13 13 13 13 13 13 12 12 12 12 13 13 13 13 13 14 12 11 6 6 8 7 6 6 6 5 5 11 12 13 13 13 13 13 12 11 12 12 12
5 6 6 6 5 8 11 11 12 12 10 12 11 9 8 8 8 8 8 9 8 9 8 8 8 8 7 8 11 10 10 11 13 13 12 13 12 12 12 13 12 12 11 12 11 11 12 12 12 13 13 12 12 12 12 12 12 13 13 13 13 12 12 8 7 6 7 7 7 7 7 5 5 12 13 13 12 12 13 12 11 10 11 11 12
6 5 6 5 6 5 8 9 10 11 10 10 10 9 10 9 8 7 7 7 7 7 8 9 10 9 8 10 12 11 9 11 12 12 12 12 11 12 12 12 11 11 11 11 11 11 11 12 12 12 12 12 11 11 11 11 11 12 12 12 13 11 12 6 6 5 7 7 6 7 7 5 10 10 11 11 11 12 12 12 11 9 11 11 12
6 4 4 5 5 5 5 6 8 10 9 9 9 8 8 8 8 8 7 7 8 8 7 9 10 9 9 11 11 11 10 11 12 12 11 11 11 11 11 12 11 10 11 11 11 11 11 11 11 11 12 12 11 11 10 10 10 10 11 11 10 11 12 7 7 6 6 6 6 6 6 5 11 9 9 9 10 11 13 12 11 9 10 11 11
7 6 5 4 3 4 5 4 7 9 9 9 9 8 7 7 7 7 6 7 8 7 8 11 10 10 11 11 11 10 8 10 11 11 10 9 11 11 10 11 11 10 10 10 10 10 10 10 11 11 12 12 11 11 10 10 10 10 10 10 9 9 12 9 7 6 6 6 6 6 6 5 9 11 11 11 10 12 13 12 10 9 10 10 10
7 8 7 4 3 3 3 5 6 6 6 8 8 8 7 6 6 1 3 7 7 8 8 10 10 10 10 11 11 10 10 9 9 10 10 10 11 10 9 10 10 10 10 10 9 9 9 9 9 10 11 12 12 11 10 9 10 10 11 10 9 11 11 10 6 6 6 6 6 5 6 9 12 10 11 11 10 14 12 11 10 8 9 9 9
6 7 6 5 4 3 2 2 5 6 5 5 4 5 7 8 10 9 2 2 6 8 9 9 9 9 11 12 11 10 10 9 9 9 9 11 11 10 10 9 10 10 10 10 8 8 8 8 8 8 9 10 12 12 11 10 10 11 11 9 10 10 11 7 5 5 5 5 5 6 6 11 11 10 11 10 10 11 12 9 9 8 9 9 9
7 7 6 5 4 4 4 2 1 3 5 6 7 7 8 9 8 10 5 2 1 5 9 8 9 9 9 11 11 9 8 7 8 7 10 10 11 9 10 8 9 10 10 9 7 7 7 7 7 6 6 8 9 10 10 11 11 11 9 9 9 9 7 6 4 5 5 5 4 4 7 11 10 9 10 9 9 9 10 9 9 7 9 8 7
6 7 7 8 8 7 5 3 1 1 4 5 6 6 7 9 7 9 9 7 3 5 8 9 7 7 7 7 9 7 6 5 5 4 8 7 9 11 10 9 8 8 9 9 6 5 6 6 6 6 6 6 7 7 8 8 10 10 10 10 9 7 6 6 5 4 4 4 4 4 8 8 8 8 8 8 9 8 8 8 8 8 8 8 8
6 7 7 8 8 7 7 7 5 2 0 5 4 5 4 8 7 6 6 6 5 6 6 5 5 5 6 7 5 6 5 5 4 5 4 5 6 8 10 9 8 7 8 8 6 4 5 5 5 5 5 4 3 4 4 6 9 9 9 10 8 7 7 6 6 5 4 4 4 5 8 7 7 6 7 7 8 8 6 6 6 7 6 7 6
7 6 7 7 7 6 7 7 7 7 4 2 5 6 7 5 6 6 5 6 6 6 5 5 4 4 4 4 4 4 5 5 5 6 5 6 5 6 7 8 7 7 8 8 6 5 4 4 5 5 5 3 3 3 3 4 5 8 8 7 6 7 6 7 6 6 4 3 4 8 9 8 7 6 5 6 6 9 9 10 9 7 6 4 4
5 4 5 6 8 8 8 6 6 7 5 2 1 5 6 5 5 5 4 4 3 2 4 5 3 4 4 4 3 4 4 4 6 10 8 5 5 6 6 7 6 6 8 5 5 4 4 3 5 5 3 3 3 6 6 4 4 4 5 5 5 5 5 5 6 6 5 4 5 10 12 12 9 7 6 5 6 7 8 8 9 9 8 7 6
3 4 5 6 7 7 7 8 8 6 6 5 2 3 5 5 5 5 5 4 4 3 2 3 4 2 3 2 1 2 4 3 4 5 4 5 4 4 4 3 2 3 5 3 2 2 1 0 1 3 3 3 5 5 4 5 4 4 5 4 5 4 4 5 5 5 4 4 5 9 11 13 15 13 10 9 8 9 9 9 9 10 11 9 9
4 6 5 5 6 7 6 7 8 6 5 4 2 1 5 6 4 5 4 4 4 4 3 3 2 2 4 2 2 4 3 4 3 2 5 5 4 4 4 3 2 3 3 4 2 1 1 1 1 2 3 3 4 4 4 5 4 4 4 4 5 3 3 4 3 4 4 4 3 8 8 11 14 15 15 14 12 12 12 11 10 10 11 12 13
5 4 4 4 5 6 7 7 7 6 6 5 3 5 6 5 5 4 4 3 4 1 3 2 4 4 3 2 3 2 4 4 4 3 3 4 4 4 4 4 4 3 3 4 2 2 1 0 1 3 2 3 3 3 4 3 3 4 4 4 3 3 3 3 3 3 3 3 3 6 7 9 13 15 15 16 16 15 14 14 13 11 11 11 12
3 5 4 4 5 7 6 6 6 5 4 4 5 7 6 8 8 8 8 7 8 7 6 5 6 5 5 5 5 3 3 3 2 3 2 3 3 2 2 2 2 0 2 1 3 2 1 2 2 2 3 3 3 2 2 3 3 4 4 3 4 3 3 2 2 3 3 3 3 3 5 7 10 12 15 16 16 17 17 16 16 15 14 13 12
6 6 5 5 6 6 6 6 5 4 3 5 8 6 7 8 8 8 8 7 8 7 7 8 8 7 8 8 7 5 5 4 4 5 6 6 5 6 6 5 5 4 4 5 3 4 4 2 2 4 3 4 5 4 3 3 3 3 4 4 3 4 4 4 3 3 3 3 3 3 3 5 7 10 14 15 16 17 17 17 18 17 17 17 16
5 4 5 5 5 7 6 6 4 3 7 8 7 7 7 9 8 8 7 8 8 7 9 8 7 7 8 9 8 7 8 7 6 7 7 7 7 8 6 6 6 5 5 6 4 4 5 5 5 6 5 5 6 5 5 6 5 4 3 3 3 3 4 4 4 3 4 4 4 4 7 6 8 11 12 14 16 16 17 17 17 17 17 17 17
4 6 5 6 5 5 6 6 6 7 8 9 8 9 9 10 8 7 6 7 8 8 9 8 8 8 8 9 10 10 8 8 8 8 8 7 8 8 7 6 7 6 5 6 5 5 5 6 6 6 6 6 5 5 6 6 5 5 4 3 3 4 5 5 5 4 4 5 7 6 8 12 12 10 11 13 14 17 17 17 17 16 17 17 17
5 5 4 5 5 7 7 7 7 8 10 9 9 10 10 10 9 8 9 7 9 9 9 9 9 8 9 9 9 9 9 9 9 9 8 8 8 7 7 8 7 6 7 7 7 6 6 6 6 6 6 6 6 7 6 6 6 6 4 5 5 6 5 5 6 5 6 7 7 7 7 7 12 12 13 14 16 16 17 17 17 18 18 18 17
3 3 4 5 6 5 6 7 7 10 11 11 10 9 9 9 9 9 8 8 9 9 10 9 8 8 9 9 10 10 9 8 9 9 9 9 8 8 8 9 7 6 7 8 9 8 8 8 9 8 8 7 8 8 7 6 6 6 6 6 6 6 6 8 7 7 7 7 7 7 7 7 7 11 13 12 14 18 18 18 17 18 19 19 19
3 3 3 6 4 4 4 5 8 11 10 10 10 9 9 9 9 8 8 9 9 9 9 8 8 8 9 9 10 10 9 8 8 9 8 8 8 9 9 9 7 7 7 7 8 8 8 9 7 8 8 9 8 7 7 7 6 5 6 6 6 6 7 7 6 6 6 7 7 7 7 7 7 7 7 11 12 16 21 20 19 18 19 18 18
3 4 6 5 6 6 4 6 7 11 11 12 12 10 9 9 10 9 9 9 9 10 9 8 8 8 8 9 11 10 10 11 10 9 9 8 9 9 9 8 7 7 8 8 7 8 9 10 8 9 8 8 6 6 6 5 5 6 5 6 6 6 6 5 6 6 6 6 7 7 7 6 6 6 6 7 9 13 19 21 20 20 20 19 18
5 4 4 5 7 7 7 8 9 13 11 10 12 11 11 10 11 10 10 10 9 10 10 9 8 7 9 10 11 10 12 11 10 9 10 9 9 9 8 8 8 8 8 8 8 8 9 10 10 9 8 8 7 7 6 6 5 6 6 6 5 6 7 7 7 6 5 7 7 6 6 6 6 7 7 7 7 9 17 19 20 21 22 21 20
4 4 5 6 8 7 8 11 11 12 12 12 14 12 11 13 12 12 12 11 11 10 9 8 8 10 10 9 9 10 11 11 10 10 10 10 9 10 9 9 8 9 9 9 10 8 7 8 9 9 7 7 9 8 7 6 6 6 5 5 5 7 8 7 7 7 7 8 7 7 8 8 7 7 7 7 7 7 10 16 17 19 19 21 21
4 5 6 7 7 7 8 10 9 10 10 11 11 11 11 12 12 11 12 12 11 9 9 9 10 9 9 10 10 10 10 11 11 9 10 10 10 10 10 10 9 9 10 10 9 8 8 7 8 9 10 10 9 9 8 7 5 6 6 6 7 8 7 7 7 7 7 7 7 7 7 7 7 7 7 7 7 8 8 11 14 14 15 18 21
5 6 6 7 8 8 9 11 11 11 10 12 13 13 12 12 12 12 13 12 10 9 9 10 9 9 10 10 11 10 10 11 11 10 10 10 11 11 11 11 9 9 10 10 10 10 9 9 9 9 9 9 7 7 6 6 6 5 7 7 8 8 7 8 8 7 6 6 7 7 8 8 7 7 7 7 7 8 9 9 9 9 10 15 18
5 5 5 7 8 8 7 8 9 9 9 10 9 11 9 9 11 10 13 11 10 10 10 10 9 10 9 11 11 11 11 11 11 10 11 10 11 10 11 10 9 9 11 12 10 10 10 10 9 8 9 10 12 11 10 8 5 7 6 6 7 9 9 9 9 8 7 7 7 7 8 7 8 7 7 7 7 7 8 9 9 8 8 11 16
5 4 5 5 5 6 8 8 5 6 6 8 8 8 10 10 11 11 11 9 10 10 11 10 11 10 11 11 11 10 11 11 11 10 10 10 10 9 10 9 9 10 10 10 9 10 9 8 6 7 9 11 12 12 12 6 7 6 5 4 4 4 7 9 10 9 8 7 6 7 7 9 8 8 7 6 6 7 7 8 8 9 8 8 9
4 4 5 6 6 6 9 8 7 7 7 7 8 7 6 7 11 9 10 8 9 10 11 9 10 9 11 11 10 10 11 10 10 10 11 10 10 10 10 10 9 9 9 9 10 10 11 10 7 7 6 8 8 9 11 6 6 3 3 3 6 5 3 7 10 7 7 7 6 7 7 8 9 7 7 7 6 6 7 7 8 9 8 8 8
5 5 5 7 7 7 7 8 7 8 8 9 9 10 9 8 12 9 12 11 9 9 10 9 9 11 11 10 10 10 10 10 10 10 10 10 10 10 9 9 10 8 10 11 11 11 9 9 9 6 6 5 6 7 9 9 5 2 0 2 3 5 5 7 5 7 5 4 6 7 7 8 9 7 6 6 6 6 6 7 8 10 9 7 7
5 6 6 7 6 6 7 9 8 8 8 8 11 12 13 13 13 12 11 12 10 9 11 9 10 12 12 10 10 10 10 10 10 10 10 10 11 10 9 10 10 9 9 10 10 10 9 9 9 9 4 8 7 9 9 9 8 5 5 2 1 2 5 5 8 7 2 3 6 6 6 7 8 9 8 8 8 7 7 7 8 8 8 8 6
4 5 5 5 6 7 8 9 9 9 10 10 13 14 14 14 13 12 11 12 9 8 10 10 9 9 10 10 9 9 10 10 11 11 11 11 10 9 9 8 9 8 7 8 8 8 7 7 8 8 9 6 7 5 8 9 10 8 3 3 5 6 1 5 6 6 6 9 6 9 7 9 10 9 7 7 8 7 7 9 9 8 8 8 7
5 5 5 7 8 9 10 10 9 9 11 10 10 10 11 12 11 11 11 10 10 8 10 9 8 9 10 7 9 10 10 11 10 9 9 8 9 8 7 8 8 7 7 7 7 7 8 8 7 6 8 7 6 8 8 8 7 10 8 6 3 1 3 5 4 6 5 4 2 6 6 7 7 9 6 6 8 7 8 9 10 10 8 7 7
5 5 6 7 9 9 9 10 10 9 7 6 5 9 9 8 8 9 10 11 13 8 7 7 9 8 8 10 9 8 8 9 8 8 8 7 8 7 8 7 7 7 6 7 8 7 7 7 6 8 7 6 6 9 8 6 5 8 8 7 6 4 1 3 3 4 7 4 2 5 4 7 6 7 5 7 8 7 7 7 9 9 9 8 7
6 6 7 7 9 8 8 7 6 6 5 6 6 8 11 9 11 11 10 10 12 12 9 9 8 8 10 9 7 7 7 7 8 8 8 7 7 8 7 7 7 6 6 7 7 6 6 6 7 7 7 7 7 7 6 6 7 5 5 7 6 6 5 4 4 2 3 8 12 5 1 5 5 4 4 6 7 6 9 9 9 8 8 8 7
6 7 7 7 7 7 7 7 8 8 7 9 8 8 9 10 11 12 13 10 11 10 9 8 9 8 10 7 8 7 7 7 7 7 7 7 7 7 7 7 8 7 6 7 6 6 7 7 7 8 7 7 6 5 6 6 6 5 6 5 4 6 5 3 3 5 3 4 7 4 12 9 4 4 6 6 5 6 8 8 8 9 8 7 7
6 6 7 7 7 7 9 9 9 8 8 10 9 8 9 10 11 11 16 11 10 9 8 9 8 7 10 8 7 7 6 7 7 6 7 6 6 6 7 8 7 6 7 6 6 7 6 7 6 6 7 7 6 6 6 5 5 4 4 3 5 5 4 4 3 5 3 2 5 10 8 11 15 8 6 7 5 7 9 8 7 7 7 7 7
6 7 7 7 6 8 9 10 8 8 9 11 10 9 7 8 11 11 13 15 12 12 11 9 8 7 9 7 7 7 6 6 6 6 6 6 7 6 7 6 6 6 7 7 7 6 5 6 6 6 7 7 6 6 5 4 4 5 5 5 5 5 3 3 5 5 3 4 7 7 7 6 7 13 7 5 10 8 7 6 7 8 7 6 7
Wind_Direction
179 145 153 158 149 148 143 136 133 130 127 122 119 116 112 108 104 99 98 98 94 93 94 98 97 92 96 95 93 98 95 94 90 86 84 81 74 68 67 66 66 61 54 50 45 43 42 43 44 46 47 47 47 48 48 48 47 44 41 37 33 30 31 33 32 31 29 41 45 48 56 57 57 58 56 53 54 54 51 51 49 45 44 51 54
164 150 145 150 150 149 145 138 134 131 127 122 119 115 113 110 110 108 105 101 98 94 96 96 86 88 101 105 100 99 101 95 91 89 85 79 77 74 70 67 65 62 58 52 46 42 40 40 41 41 42 43 43 45 47 45 46 44 42 39 31 24 21 25 29 29 25 19 22 31 51 58 59 60 61 58 52 54 48 47 49 50 42 53 53
133 135 145 142 150 148 144 140 135 130 126 122 118 115 112 109 105 103 105 104 104 102 100 91 91 95 99 106 107 103 95 90 89 86 84 81 77 74 71 68 64 60 57 52 46 43 42 43 43 42 42 41 41 41 42 44 44 45 45 41 32 21 12 13 17 22 26 21 35 46 57 52 58 62 61 57 55 53 50 47 47 47 49 51 53
127 136 137 134 146 148 143 143 134 130 126 122 118 113 110 107 104 103 106 105 104 99 101 99 99 95 92 101 105 104 100 97 93 90 88 86 81 77 73 68 64 61 58 53 47 46 46 46 46 45 44 42 41 39 39 39 40 42 42 39 32 18 9 7 6 8 13 55 78 66 58 61 46 58 63 63 58 51 47 45 44 46 44 46 49
130 136 134 129 126 145 145 141 137 132 130 125 121 117 113 108 104 104 106 106 104 100 96 102 104 97 98 98 103 105 107 102 98 92 93 87 83 80 77 72 69 66 61 54 50 49 49 49 49 48 47 45 43 41 39 39 39 39 39 36 29 14 6 7 6 11 16 63 75 61 53 57 48 57 61 63 56 50 46 44 42 40 39 37 40
138 143 135 129 136 149 145 147 144 139 136 132 127 123 119 116 113 109 106 106 105 102 103 98 92 92 92 96 102 103 100 98 96 95 89 84 80 77 73 71 68 65 59 54 52 51 50 50 51 51 48 47 46 44 42 41 40 41 39 38 30 11 8 5 5 11 18 53 75 64 55 53 53 52 60 60 57 52 47 45 44 41 39 38 35
143 146 139 136 138 138 151 148 149 145 141 137 132 129 128 124 120 116 113 110 109 105 102 104 100 96 97 100 105 106 107 104 101 97 90 86 82 79 76 72 68 64 58 56 54 52 51 50 50 51 50 47 46 46 45 43 44 44 44 40 27 12 11 4 358 5 21 47 74 68 62 60 61 55 59 57 55 51 47 45 44 44 40 38 34
142 147 145 136 137 144 148 151 149 155 143 136 138 135 133 129 124 121 118 117 114 110 104 105 105 98 100 106 109 110 109 107 106 97 91 88 86 80 76 74 70 66 59 57 56 55 54 52 49 49 49 46 45 44 44 45 45 44 43 36 23 16 12 4 358 355 27 64 83 79 73 68 60 58 62 58 56 53 49 44 42 41 41 42 40
150 154 143 139 141 144 144 144 149 153 146 138 143 138 136 134 129 126 126 123 121 116 112 110 108 107 104 109 114 113 112 110 102 96 93 90 87 82 77 73 68 64 60 57 56 56 56 54 51 49 48 47 45 44 43 44 44 42 38 30 21 19 10 3 1 5 48 75 78 77 78 73 64 64 65 61 57 55 52 48 39 39 40 41 43
158 152 145 147 149 147 147 149 149 147 142 158 144 146 143 141 137 135 135 131 123 120 119 114 113 112 110 113 108 108 113 109 102 97 95 92 88 84 78 73 66 63 59 57 56 56 56 55 53 50 48 46 45 44 43 42 42 41 37 29 24 19 9 2 5 12 32 74 76 76 79 79 69 65 65 62 57 55 54 51 50 44 40 42 39
120 144 135 137 146 147 148 146 144 144 162 163 148 153 145 140 139 140 139 135 130 126 124 122 119 113 107 107 107 119 117 112 104 99 96 93 89 85 79 72 68 65 62 58 57 56 56 55 55 52 49 46 45 44 43 41 40 39 37 31 25 18 8 3 9 15 42 63 66 56 53 62 77 66 60 56 53 54 52 48 49 46 43 41 38
116 118 125 125 142 144 146 144 144 155 162 155 160 152 147 145 141 144 143 138 135 130 126 125 122 110 105 113 121 124 110 105 106 102 99 98 98 93 83 74 71 71 66 62 60 58 57 57 56 55 51 48 45 44 42 41 40 38 35 30 26 18 10 9 11 359 47 60 59 54 44 31 45 64 54 51 51 53 51 48 45 46 44 42 42
100 111 115 120 127 140 142 143 145 152 161 163 157 154 152 149 145 147 149 143 139 133 126 123 113 106 113 118 115 106 108 113 110 109 107 104 101 93 84 82 78 79 73 68 63 60 59 58 59 57 55 51 49 46 43 41 39 37 33 31 27 22 12 15 12 9 50 55 51 39 35 32 33 52 50 51 52 53 49 47 44 44 48 45 42
95 109 111 113 112 130 137 143 146 148 156 159 154 149 143 146 149 149 152 144 140 136 128 112 105 106 117 124 118 117 127 124 119 115 109 105 101 94 91 89 87 82 77 73 68 64 62 62 60 60 59 56 53 48 46 43 39 36 33 32 27 23 18 17 20 34 59 55 44 39 32 25 38 48 47 46 44 45 48 44 44 44 49 50 44
99 112 118 107 113 104 122 137 145 147 152 152 152 149 145 149 157 156 153 143 137 134 129 118 112 113 125 129 128 130 129 126 123 114 109 110 104 99 95 94 89 82 76 73 70 66 64 64 62 60 60 60 57 53 49 45 42 36 33 30 26 22 21 20 24 37 55 52 38 34 26 11 37 42 41 44 46 47 42 43 40 42 54 48 46
69 106 108 117 114 108 112 112 131 143 151 154 142 150 149 156 157 161 158 149 142 141 138 127 122 124 127 133 137 137 136 133 125 118 114 116 110 104 100 98 93 84 78 72 69 67 65 63 62 61 60 59 59 57 52 47 44 38 33 28 23 23 26 31 35 44 51 49 41 34 16 0 24 32 34 39 40 44 47 41 38 36 52 51 46
38 74 107 110 114 109 116 119 115 124 133 139 146 153 154 155 157 165 161 151 147 138 140 131 134 132 134 138 141 141 135 127 125 120 126 124 117 113 111 106 97 92 84 77 71 67 68 68 64 62 61 60 60 60 58 50 43 37 32 26 22 24 36 42 48 56 54 43 40 30 15 359 27 30 28 30 31 47 50 39 36 39 50 50 48
46 58 60 63 67 131 130 126 113 124 141 141 149 154 156 144 133 255 167 155 145 134 131 136 140 138 137 139 140 141 135 129 127 137 138 127 123 120 121 117 111 104 94 85 78 72 71 72 72 69 66 63 59 57 59 57 47 37 30 25 24 32 38 46 57 62 60 53 38 27 19 13 25 35 31 23 26 49 47 36 36 36 49 46 42
42 48 45 48 49 59 124 163 147 134 141 132 138 151 163 153 139 204 178 110 138 134 136 140 137 138 141 138 138 138 139 141 134 141 141 135 135 136 131 127 119 112 102 91 85 77 74 75 76 73 67 62 57 53 52 50 45 38 35 31 34 32 36 43 53 63 60 54 40 31 20 20 20 32 31 23 18 38 41 29 30 32 39 42 42
33 24 23 22 25 39 49 75 163 163 157 160 162 167 172 169 161 172 155 116 90 135 133 130 135 137 140 143 140 135 137 142 132 142 148 148 144 144 139 131 123 119 109 104 97 88 81 79 81 82 75 63 57 54 43 41 39 37 35 36 35 33 31 38 54 63 60 56 51 34 31 25 21 32 24 24 22 35 40 32 20 32 35 31 26
25 22 21 10 9 5 1 56 46 220 195 173 172 156 170 169 161 154 160 183 171 151 119 119 123 126 130 133 134 137 145 146 138 150 152 151 159 147 139 130 130 125 120 115 115 104 95 85 82 78 68 58 32 30 42 37 29 31 27 31 27 25 25 37 46 57 58 48 42 29 40 34 25 29 28 14 19 39 34 34 19 28 29 16 16
18 7 12 13 9 2 359 352 344 7 202 186 167 166 156 171 163 163 165 179 170 130 133 140 133 136 138 146 150 150 147 154 152 151 159 152 154 149 135 137 136 133 128 128 132 130 107 95 81 72 80 56 38 21 2 32 31 31 31 25 23 17 18 27 32 37 49 38 33 28 35 34 27 29 28 18 14 39 29 37 38 19 14 21 22
21 10 357 6 3 349 354 354 348 337 350 39 152 167 161 165 167 165 168 170 168 158 145 151 158 149 158 159 155 162 158 168 160 158 157 151 147 136 141 147 136 139 139 136 150 156 152 122 97 76 58 62 30 11 27 25 31 32 37 26 22 17 19 20 26 25 24 22 18 23 21 24 22 21 23 20 3 2 9 7 11 3 5 7 356
15 13 353 348 2 355 343 339 342 332 330 37 89 148 167 162 154 158 159 165 148 185 165 163 156 156 148 168 157 160 164 176 158 155 143 148 145 140 154 136 129 137 140 139 157 181 175 118 98 86 61 48 84 68 63 56 46 44 42 34 28 22 31 23 20 28 13 7 7 20 14 7 7 4 1 0 353 353 356 357 358 4 2 354 336
4 358 14 359 349 347 341 335 331 330 331 324 79 201 161 165 164 161 158 160 157 195 209 179 135 134 111 76 21 107 128 155 142 148 149 144 146 155 144 140 121 119 135 135 159 209 145 65 35 61 85 108 78 80 79 68 62 58 50 38 32 29 27 30 24 26 22 2 358 16 15 6 359 355 352 349 345 343 344 345 346 352 359 357 347
7 28 359 351 341 334 338 324 321 312 316 308 317 292 165 166 160 148 150 153 148 145 82 41 96 43 75 47 54 84 102 106 97 136 152 153 156 161 155 153 135 156 149 144 187 203 274 34 30 80 118 112 107 105 105 105 91 81 69 48 46 34 31 35 29 24 25 14 357 12 13 7 2 357 354 351 351 346 341 338 338 343 346 348 4
15 13 356 339 332 333 327 321 309 306 306 305 317 19 64 78 71 64 91 87 91 69 95 81 74 61 55 92 88 100 131 135 141 157 152 144 165 168 169 166 169 171 184 155 157 193 225 173 115 135 133 101 100 106 103 92 106 96 80 64 54 46 38 41 32 27 12 22 1 12 10 6 6 3 359 357 358 357 352 348 343 336 337 342 351
23 17 358 334 331 325 315 311 304 297 282 309 38 63 67 68 63 64 59 57 61 55 52 53 62 61 52 46 71 65 95 103 119 143 153 147 167 164 109 87 57 57 148 141 153 178 131 114 143 102 80 67 73 40 77 98 91 89 75 61 54 42 22 35 46 35 24 28 10 357 3 3 7 7 8 6 4 3 2 0 357 354 346 341 345
24 15 346 337 327 317 311 312 304 299 301 68 79 71 74 72 66 62 61 55 61 58 59 52 47 46 48 48 36 42 43 55 63 78 77 67 53 55 62 59 65 46 54 56 55 98 86 68 47 56 65 63 55 25 43 22 11 55 82 53 50 38 22 11 22 28 25 35 26 355 346 355 4 10 14 14 15 13 12 10 6 2 1 360 356
19 356 342 333 324 318 323 338 348 44 80 81 79 75 71 76 62 62 63 63 61 56 56 54 47 45 45 50 47 47 47 47 44 46 56 54 59 56 54 47 50 37 42 59 40 56 64 57 49 47 40 27 40 22 31 29 12 3 36 60 31 34 36 23 14 15 26 25 18 15 1 359 3 11 11 13 20 19 17 13 9 7 6 6 3
7 1 346 340 320 335 2 14 43 68 79 81 76 79 75 74 67 61 55 58 67 64 63 59 52 47 47 51 54 51 54 51 54 51 56 54 51 54 50 46 45 31 27 47 39 45 46 48 49 51 47 45 37 28 30 23 21 15 1 28 2 17 28 21 30 21 28 11 13 24 27 35 28 23 19 22 29 21 17 17 16 14 13 10 7
8 350 341 322 355 12 19 35 56 69 79 79 78 77 77 76 72 68 63 64 67 64 62 56 51 49 47 52 55 55 58 59 58 60 60 58 60 56 52 51 47 38 41 40 41 37 46 47 47 55 63 60 41 28 24 23 10 11 6 23 7 34 24 21 30 29 33 33 29 34 36 29 28 25 26 40 35 27 25 24 23 22 18 14 12
2 338 330 3 16 11 36 38 62 72 76 78 79 75 79 77 75 70 66 62 61 63 62 56 56 50 49 54 56 57 56 62 61 61 62 63 60 62 59 55 47 41 46 49 53 45 42 40 37 34 38 39 36 23 13 14 12 2 12 15 19 22 21 33 31 37 40 41 40 40 36 32 27 27 25 28 25 25 28 27 27 23 20 17 13
350 351 16 31 13 23 48 59 63 74 73 78 79 79 75 76 72 68 64 64 63 66 64 61 58 59 58 55 63 62 62 58 63 65 62 62 59 55 52 53 43 43 44 43 51 48 48 42 33 39 35 34 28 18 14 6 354 357 11 2 17 17 39 45 41 44 48 45 48 45 40 36 32 31 26 21 18 21 27 23 24 24 21 17 15
20 30 38 41 46 42 50 67 65 78 74 77 75 71 70 74 75 68 64 63 66 66 62 56 57 58 64 61 59 60 62 64 59 63 62 60 60 57 49 43 41 43 46 37 49 55 56 52 36 38 34 30 20 19 12 1 351 354 359 7 15 33 52 49 44 42 43 52 54 48 45 42 34 33 27 23 20 21 25 24 23 22 19 16 15
42 38 56 56 59 52 64 81 73 80 74 77 86 78 77 78 77 73 69 60 65 63 59 54 53 54 57 59 56 61 61 60 61 62 68 58 59 58 50 42 37 43 45 43 44 50 56 55 45 38 32 22 13 13 12 2 356 359 356 12 13 52 49 40 36 30 31 52 51 49 42 37 36 33 27 25 22 20 20 19 19 18 16 13 12
45 46 64 76 72 66 71 77 76 87 88 88 84 84 85 79 76 75 70 67 63 61 59 57 57 53 50 52 43 50 57 58 57 56 62 58 57 55 48 43 40 44 46 43 44 34 44 57 49 42 38 27 22 11 6 1 355 358 357 21 17 48 40 35 33 37 49 55 51 41 35 26 26 26 28 29 26 21 12 14 15 13 8 7 10
58 65 76 85 86 82 82 86 80 86 90 90 87 90 85 84 79 74 70 67 63 63 63 60 57 55 56 55 53 53 55 58 58 59 65 62 58 56 51 43 43 45 49 47 45 38 40 45 54 39 33 30 21 12 358 351 357 1 15 35 44 50 37 36 38 49 60 58 52 48 42 37 34 26 25 30 31 23 16 9 9 9 5 3 7
79 81 89 92 92 92 96 95 94 92 95 95 96 90 87 85 81 77 73 69 64 61 59 63 58 57 56 57 56 55 53 55 57 56 65 63 61 56 54 45 45 48 52 49 43 38 42 42 47 41 37 36 23 16 6 350 1 20 56 67 65 55 47 41 36 37 48 60 58 49 42 27 30 25 21 27 30 25 20 16 9 5 358 357 1
85 81 86 96 102 100 95 97 103 107 104 97 99 96 89 85 88 83 75 69 68 66 60 64 62 59 54 56 57 58 54 55 54 55 60 61 62 58 60 51 49 53 55 51 43 39 35 36 37 37 34 29 26 10 10 7 2 52 60 58 59 63 54 47 40 33 26 28 40 47 39 26 28 18 16 20 28 26 21 16 12 2 356 351 354
81 79 85 90 91 101 99 90 86 91 101 105 97 101 102 97 84 82 86 81 78 76 69 62 63 61 59 59 58 57 56 57 53 56 59 62 61 58 57 52 51 55 57 56 51 47 42 40 36 38 39 40 26 10 3 9 26 19 12 31 42 64 66 59 46 32 22 24 30 43 33 35 22 19 6 15 25 22 19 13 9 3 356 351 347
87 77 74 78 80 82 94 95 87 84 85 91 99 87 77 97 105 96 95 83 80 76 76 65 67 65 62 59 60 58 59 58 56 58 60 59 59 55 52 48 46 52 59 55 49 45 39 36 27 41 33 54 48 19 5 13 30 31 352 330 348 341 67 58 46 17 23 23 31 41 35 35 23 9 2 17 15 15 13 9 6 1 353 348 345
104 93 87 94 85 82 88 93 88 94 94 99 102 101 98 94 100 100 100 93 75 81 84 82 75 73 65 63 61 61 60 59 56 56 60 56 60 61 54 53 49 46 52 46 42 42 35 36 34 45 31 33 58 32 27 34 30 339 281 68 1 6 328 3 9 14 20 17 33 36 29 28 11 7 3 15 7 0 8 7 7 357 346 345 343
103 103 96 95 97 97 96 97 93 94 98 98 100 96 97 97 90 99 89 93 102 91 85 77 74 71 64 62 59 62 62 63 59 61 64 60 57 58 56 52 49 45 53 56 47 44 36 34 34 36 39 53 28 25 27 28 38 14 26 55 286 74 352 346 342 317 357 4 32 32 40 19 8 3 6 7 354 357 359 1 358 349 339 335 339
103 108 108 106 106 102 101 102 102 103 105 111 112 112 108 100 101 96 96 93 80 83 83 69 67 72 75 60 60 64 67 66 61 59 61 61 58 59 61 60 60 51 54 60 56 49 46 42 38 45 40 61 44 27 17 24 36 32 76 39 5 27 39 283 327 293 351 2 355 21 15 17 14 358 0 353 357 357 351 350 345 339 331 328 332
95 92 102 113 113 108 107 107 109 112 114 116 115 115 116 120 122 117 108 99 89 78 79 94 85 75 76 82 67 59 63 64 60 63 63 65 64 62 62 64 61 57 55 62 61 54 44 44 33 47 48 36 78 46 29 8 30 36 44 68 89 132 312 296 41 317 350 283 23 13 3 21 9 349 346 353 356 343 349 343 333 327 324 321 320
106 108 109 111 109 110 112 117 120 119 115 112 114 115 106 104 107 105 108 111 107 91 99 92 92 88 85 74 70 62 61 71 66 65 66 66 69 65 66 66 65 62 56 64 60 56 50 47 38 46 44 42 45 60 42 5 5 26 24 33 39 39 36 23 0 304 331 324 33 1 355 12 355 338 338 351 341 339 336 332 322 317 319 315 313
120 113 111 107 109 112 116 120 114 110 110 110 103 111 114 115 111 106 104 103 104 114 106 97 90 92 86 82 80 73 65 67 74 69 69 69 69 68 65 65 64 58 59 58 60 53 54 45 48 49 51 47 51 67 60 31 58 359 5 24 16 10 14 56 74 63 267 310 320 327 265 359 336 312 321 340 323 330 329 320 314 312 311 311 310
120 119 117 110 107 107 108 108 106 108 112 109 106 104 112 118 116 116 106 102 107 109 107 101 100 99 94 88 84 79 75 68 69 75 70 70 68 69 65 64 61 56 53 56 51 50 54 54 45 45 45 44 47 58 63 43 44 34 13 5 13 14 347 17 58 28 12 304 282 325 322 322 311 277 333 314 309 320 311 301 299 304 305 306 307
118 112 111 110 111 111 108 107 107 109 117 112 109 110 116 120 117 119 118 118 116 111 109 110 106 106 98 95 91 85 81 75 67 67 72 67 71 68 66 62 61 57 56 56 52 47 44 51 52 55 49 51 36 46 64 54 57 45 61 44 32 356 6 3 15 359 311 248 288 316 321 326 327 324 327 306 314 313 305 299 303 297 299 305 308
114 115 113 116 119 114 114 108 113 115 118 118 119 120 119 120 121 125 123 125 124 122 121 113 115 108 104 102 98 95 87 83 80 74 71 70 69 66 66 66 63 59 55 49 47 48 39 50 51 50 50 50 38 38 36 42 48 39 32 46 36 47 46 358 331 343 352 326 324 306 309 304 296 308 314 323 314 303 282 293 295 295 302 312 311